User: anonymous   Login
Location: Unspecified
(0.0000°N, 0.0000°E)
Time: 04:46:01
(UTC+00:00)
Language:

Kosmos-2184 - Orbit

View from above orbital plane
View from above orbital plane
View from above satellite
View from above satellite

Ground track
Ground track

The orbit data is extracted from the following two-line orbital elements,

1 21937U 92020A   18267.49913005 +.00000009 +00000-0 -68645-5 0  9994
2 21937 082.9338 042.8920 0034667 082.1824 344.2832 13.73153850324936
Epoch (UTC): 24 September 2018 11:58:44
Eccentricity: 0.0034667
inclination: 82.9338°
perigee height: 963 km
apogee height: 1014 km
right ascension of ascending node: 42.8920°
argument of perigee: 82.1824°
revolutions per day: 13.73153850
mean anomaly at epoch: 344.2832°
orbit number at epoch: 32493

The dashed part of the orbit path shows where the satellite is in the earth's shadow,  

DLR